Regional Weather Roundup
Issued by NWS

Home | Current Version | Previous Version | Text Only | Print | Product List | Glossary Off
Versions: 1 2 3 4 5 6 7 8 9 10 11 12 13 14 15 16 17 18 19 20 21 22 23 24 25 26 27 28 29 30 31 32 33 34 35 36 37 38 39 40 41 42 43 44 45 46 47 48 49 50

000
ASUS45 KBOI 291210
RWRID
WEATHER ROUNDUP FOR IDAHO
NATIONAL WEATHER SERVICE BOISE ID
500 AM MST MON DEC 29 2014

NOTE: "FAIR" INDICATES FEW OR NO CLOUDS BELOW 12000 FEET
WITH NO SIGNIFICANT WEATHER AND/OR OBSTRUCTIONS TO VISIBILITY

IDZ012-014-291300-
SOUTHWEST IDAHO


CITY           SKY/WX    TMP DP  RH WIND       PRES   REMARKS
BOISE          FOG       25  24  96 CALM      30.10S VSB 1/4
CALDWELL       CLOUDY    25  19  80 N3        30.14R VSB 1
MOUNTAIN HOME  CLOUDY    20  18  90 E5        30.10S WCI  14
$$

IDZ016-017-291300-
SOUTHCENTRAL IDAHO


CITY           SKY/WX    TMP DP  RH WIND       PRES   REMARKS
BURLEY         FLURRIES  26  22  84 CALM      30.04S
JEROME         CLOUDY    20  17  88 NW3       30.06S
TWIN FALLS     CLOUDY    26  20  77 NW3       30.05S
$$

IDZ019>023-291300-
SOUTHEAST IDAHO


CITY           SKY/WX    TMP DP  RH WIND       PRES   REMARKS
IDAHO FALLS    CLOUDY    17  13  84 N14       30.05R WCI   3
POCATELLO      LGT SNOW  21  19  92 N7        30.05S FOG     WCI  12
REXBURG        CLOUDY    12   7  80 NE9       30.06R WCI   0
$$

IDZ006-010-011-018-031-032-291300-
CENTRAL IDAHO MOUNTAINS


CITY           SKY/WX    TMP DP  RH WIND       PRES   REMARKS
MCCALL         CLOUDY    15  12  88 CALM      29.98S
HAILEY         CLOUDY    10   3  72 NW7       30.03S WCI   0
STANLEY          N/A     -3  -9  75 SE7       29.98S WCI -16
SALMON         CLOUDY    19   7  58 NE5       30.13R WCI  13
CHALLIS        CLOUDY    10   6  84 CALM      30.05R
$$

IDZ002-004-006-007-026-291300-
NORTHERN IDAHO


CITY           SKY/WX    TMP DP  RH WIND       PRES   REMARKS
LEWISTON       CLOUDY    31  28  89 NE5       30.18R WCI  26
LOWELL           N/A     29  22  75 VRB5      30.22R WCI  24
COEUR D`ALENE  CLOUDY    21  14  73 N20       30.29R WCI   6
MULLAN PASS    LGT SNOW   7   1  76 VRB3      30.06R
$$



USA.gov is the U.S. government's official web portal to all federal, state and local government web resources and services.